#timestamp,LO_Frequency,Hit,StdDev 
1604354415.5,286046999.2,N
1604354435.3,286046998.8,N
1604354455.2,286046998.6,N
1604354475.9,286046998.5,N
1604354495.7,286046996.9,Y
1604354515.6,286046999.0,P
1604354535.4,286047000.8,P
1604354555.2,286046998.1,N
1604354575.1,286046998.9,N
1604354576.0,286046998.9,N
1604354595.8,286046999.6,N
1604354615.6,286046997.1,Y
1604354635.5,286046998.9,P
1604354655.3,286046999.5,P
1604354675.1,286046999.0,P
1604354695.9,286046999.6,N
1604354715.7,286046998.8,Y
1604354735.5,286046999.9,P
1604354755.4,286047001.2,P
1604354775.2,286046999.1,N
1604354795.0,286046997.0,Y
1604354795.9,286046997.0,P
1604354815.8,286046999.6,N
1604354835.6,286046999.3,N
1604354855.4,286046997.1,N
1604354875.3,286046997.1,N
1604354895.1,286046997.0,N
1604354896.0,286046997.0,N
1604354915.8,286046996.8,N
1604354935.7,286046995.0,Y
1604354955.5,286046999.1,P
1604354975.3,286046997.0,P
1604354995.2,286046999.6,N
1604355015.9,286046998.1,N
1604355035.7,286047000.6,N
1604355055.6,286047000.4,N
1604355075.4,286046997.4,N
1604355095.2,286046999.2,N
1604355115.1,286046999.2,N
1604355116.0,286046999.2,N
1604355135.8,286046997.0,N
1604355155.6,286046999.2,N
1604355175.5,286046996.9,N
1604355195.3,286046996.7,N
1604355215.1,286046997.1,N
1604355235.9,286046997.1,N
1604355255.7,286046996.9,N
1604355275.5,286046997.3,N
1604355295.3,286046999.4,N
1604355315.2,286046996.5,N
1604355335.0,286046998.2,N
1604355335.9,286046998.2,N
1604355355.7,286046999.2,N
1604355375.6,286046997.7,N
1604355395.4,286046998.0,N
1604355415.2,286046995.1,Y
1604355435.1,286046998.0,P
1604355436.0,286046998.0,P
1604355455.8,286046997.3,P
1604355475.6,286046995.2,Y
1604355495.5,286046999.4,P
1604355515.3,286046996.5,P
1604355535.1,286046996.7,N
1604355555.9,286046999.0,N
1604355575.7,286046998.8,N
1604355595.5,286046996.6,Y
1604355615.4,286047001.2,P
1604355635.2,286047000.8,N
1604355655.0,286047000.9,N
1604355655.9,286047000.9,N
1604355675.8,286047001.2,N
1604355695.6,286047001.0,N
1604355715.4,286047002.2,N
1604355735.3,286047000.9,N
1604355755.1,286047000.7,N
1604355775.8,286047000.5,N
1604355795.7,286046999.1,N
1604355815.5,286046998.9,N
1604355835.3,286046999.3,N
1604355855.2,286046999.4,N
1604355875.0,286046999.0,N
1604355875.9,286046999.0,N
1604355895.7,286047001.2,N
1604355915.6,286046996.9,N
1604355935.4,286046999.5,N
1604355955.2,286046996.6,N
1604355975.1,286046995.0,Y
1604355976.0,286046995.0,P
1604355995.8,286046995.8,N
1604356015.6,286046995.8,N
1604356035.5,286046997.4,N
1604356055.3,286046995.5,N
1604356075.1,286046998.0,N
1604356095.9,286046995.9,N
1604356115.7,286046994.2,Y
1604356135.5,286046995.8,P
1604356155.4,286046993.6,P
1604356175.2,286046992.5,P
1604356195.0,286046988.6,Y
1604356196.0,286046988.6,P
1604356215.8,286046994.8,N
1604356235.6,286046992.3,N
1604356255.5,286046992.7,N
1604356275.3,286046990.5,Y
1604356295.1,286046996.9,P
1604356315.9,286046997.6,N
1604356335.7,286046997.1,N
1604356355.5,286046995.6,N
1604356375.4,286046993.7,Y
1604356395.2,286046996.9,P
1604356415.0,286046997.1,P
1604356415.9,286046997.1,P
1604356435.8,286046996.8,Y
1604356455.6,286047001.1,P
1604356475.4,286046998.4,N
1604356495.3,286046999.0,N
1604356515.1,286046999.5,N
1604356516.0,286046999.5,N
1604356535.8,286046997.4,N
1604356555.7,286046997.7,N
1604356575.5,286046997.7,N
1604356595.3,286046995.1,Y
1604356615.2,286046997.6,P
1604356635.9,286046997.0,P
1604356655.7,286046994.9,P
1604356675.6,286046993.4,Y
1604356695.4,286046997.0,P
1604356715.2,286046997.0,P
1604356735.1,286046995.3,P
1604356736.0,286046995.3,Y
1604356755.8,286047000.9,P
1604356775.6,286046998.5,N
1604356795.5,286046999.4,N
1604356815.3,286046997.0,N
1604356835.1,286046999.6,N
1604356855.9,286046996.5,N
1604356875.7,286046997.5,N
1604356895.5,286046997.5,N
1604356915.4,286046993.8,Y
1604356935.2,286046996.2,P
1604356955.0,286046996.0,P
1604356955.9,286046996.0,P
1604356975.8,286046996.3,Y
1604356995.6,286046997.7,P
1604357015.4,286046995.4,P
1604357035.3,286046995.2,P
1604357055.1,286046995.9,Y
1604357075.8,286046998.4,P
1604357095.7,286046996.9,N
1604357115.5,286046997.0,P
1604357135.3,286046997.4,Y
1604357155.2,286046998.1,P
1604357175.0,286046998.7,N
1604357175.9,286046998.7,N
1604357195.7,286046999.6,N
1604357215.6,286046997.0,Y
1604357235.4,286046999.3,P
1604357255.2,286046998.1,P
1604357275.1,286046996.7,P
1604357276.0,286046996.7,Y
1604357295.8,286047001.2,P
1604357315.6,286047000.6,N
1604357335.5,286047000.8,N
1604357355.3,286047000.6,N
1604357375.1,286046998.4,N
1604357395.9,286047001.2,N
1604357415.7,286046998.6,N
1604357435.5,286046998.9,N
1604357455.4,286046996.9,N
1604357475.2,286046996.6,N
1604357495.0,286046997.1,N
1604357495.9,286046997.1,N
1604357515.8,286046994.9,Y
1604357535.6,286046997.3,P
1604357555.4,286046995.0,P
1604357575.3,286046996.0,N
1604357595.1,286046994.0,Y
1604357615.9,286046996.8,P
1604357635.7,286046995.2,P
1604357655.5,286046995.2,P
1604357675.4,286046994.0,Y
1604357695.2,286046997.7,P
1604357715.0,286046995.2,P
1604357715.9,286046995.2,P
1604357735.8,286046996.1,Y
1604357755.6,286046998.4,P
1604357775.4,286046999.1,N
1604357795.3,286046997.8,N
1604357815.1,286046995.6,Y
1604357816.0,286046995.6,P
1604357835.8,286046995.0,P
1604357855.7,286046995.6,P
1604357875.5,286046993.7,Y
1604357895.3,286046996.7,P
1604357915.2,286046995.0,P
1604357935.9,286046996.3,P
1604357955.7,286046994.1,Y
1604357975.6,286046994.9,P
1604357995.4,286046996.2,P
